Newport News, VA

10:44 PM EDT on October 18, 2017 (GMT -0400)
Newport News-Williamsburg International

Weather History for KPHF - November, 2013

Change the Weather History Date:

Tuesday, November 12, 2013

  Actual Average Record
Temperature  
Mean Temperature 49 °F -  
Max Temperature 57 °F 60 °F 79 °F (1949)
Min Temperature 39 °F 43 °F 28 °F (1996)
Degree Days  
Heating Degree Days 16    
Moisture  
Dew Point 28 °F    
Average Humidity 48    
Maximum Humidity 66    
Minimum Humidity 35    
Precipitation  
Precipitation 0.00 in - - ()
Sea Level Pressure  
Sea Level Pressure 30.17 in    
Wind  
Wind Speed 11 mph (NNW)    
Max Wind Speed 18 mph    
Max Gust Speed 28 mph    
Visibility 10 miles    
Events      
Averages and records for this station are not official NWS values.
T = Trace of Precipitation, MM = Missing Value Source: NWS Daily Summary

Daily Weather History Graph

Daily Weather History Graph

Search for Another Location

Airport or City:

Trip Planner

Search our weather history database for the weather conditions in past years. The results will help you decide how hot, cold, wet, or windy it might be!

Date:

Astronomy

Nov. 12, 2013 Rise Set
Actual Time 6:41 AM EST 4:57 PM EST
Civil Twilight 6:14 AM EST 5:25 PM EST
Nautical Twilight 5:43 AM EST 5:56 PM EST
Astronomical Twilight 5:12 AM EST 6:27 PM EST
Moon 2:05 PM EST (11/12) 1:36 AM EST (11/12)
Length of Visible Light 11h 11m
Length of Day
10h 16m
Waxing Gibbous, 76% of the Moon is Illuminated
Nov 12
Waxing Gibbous
Nov 17
Full
Nov 25
Last Quarter
Dec 2
New
Dec 9
First Quarter

Hourly Weather History & Observations

Time (EST) Temp. Windchill Dew Point Humidity Pressure Visibility Wind Dir Wind Speed Gust Speed Precip Events Conditions
12:54 AM 48.9 °F - 37.9 °F 66% 30.09 in 10.0 mi SW 5.8 mph - N/A   Clear
1:54 AM 50.0 °F - 35.1 °F 57% 30.07 in 10.0 mi SW 10.4 mph - N/A   Clear
2:54 AM 50.0 °F - 36.0 °F 59% 30.04 in 10.0 mi SW 9.2 mph - N/A   Clear
3:54 AM 48.9 °F - 35.1 °F 59% 30.03 in 10.0 mi SW 9.2 mph - N/A   Clear
4:54 AM 48.9 °F - 34.0 °F 56% 30.01 in 10.0 mi WSW 9.2 mph - N/A   Clear
5:54 AM 51.1 °F - 34.0 °F 52% 30.01 in 10.0 mi WSW 6.9 mph - N/A   Clear
6:54 AM 50.0 °F - 33.1 °F 52% 30.03 in 10.0 mi West 10.4 mph - N/A   Clear
7:54 AM 52.0 °F - 35.1 °F 53% 30.07 in 10.0 mi NW 11.5 mph 17.3 mph N/A   Partly Cloudy
8:54 AM 57.0 °F - 35.1 °F 44% 30.07 in 10.0 mi NNW 6.9 mph - N/A   Clear
9:54 AM 57.0 °F - 35.1 °F 44% 30.09 in 10.0 mi North 12.7 mph - N/A   Clear
10:54 AM 57.9 °F - 37.9 °F 47% 30.12 in 10.0 mi North 15.0 mph 25.3 mph N/A   Clear
11:54 AM 51.1 °F - 37.9 °F 61% 30.14 in 10.0 mi NNE 17.3 mph 25.3 mph N/A   Overcast
12:32 PM 50.0 °F - 33.8 °F 54% 30.15 in 10.0 mi North 13.8 mph 27.6 mph N/A   Overcast
12:54 PM 50.0 °F - 32.0 °F 50% 30.16 in 10.0 mi North 17.3 mph 27.6 mph N/A   Overcast
1:54 PM 46.9 °F - 28.9 °F 50% 30.19 in 10.0 mi North 18.4 mph 26.5 mph N/A   Overcast
2:54 PM 44.1 °F 36.5 °F 28.0 °F 53% 30.22 in 10.0 mi North 17.3 mph 26.5 mph N/A   Overcast
3:54 PM 41.0 °F 34.7 °F 25.0 °F 53% 30.25 in 10.0 mi North 10.4 mph - N/A   Overcast
4:54 PM 42.1 °F 35.7 °F 19.0 °F 40% 30.26 in 10.0 mi North 11.5 mph 18.4 mph N/A   Overcast
5:54 PM 42.1 °F 34.2 °F 18.0 °F 38% 30.28 in 10.0 mi North 16.1 mph 26.5 mph N/A   Overcast
6:54 PM 42.1 °F 35.2 °F 18.0 °F 38% 30.30 in 10.0 mi North 12.7 mph 19.6 mph N/A   Overcast
7:54 PM 42.1 °F 35.7 °F 17.1 °F 37% 30.31 in 10.0 mi North 11.5 mph 18.4 mph N/A   Overcast
8:54 PM 42.1 °F 35.7 °F 16.0 °F 35% 30.34 in 10.0 mi NNW 11.5 mph 23.0 mph N/A   Overcast
9:54 PM 42.1 °F 34.9 °F 16.0 °F 35% 30.35 in 10.0 mi North 13.8 mph 20.7 mph N/A   Clear
10:54 PM 41.0 °F 33.1 °F 15.1 °F 35% 30.36 in 10.0 mi North 15.0 mph 23.0 mph N/A   Clear
11:54 PM 39.9 °F 31.8 °F 15.1 °F 36% 30.38 in 10.0 mi NNW 15.0 mph - N/A   Clear